Location: Unspecified
(52.6009°N, 0.0000°E)
Time: 09:24:33
(UTC+00:00)

Meteor 1-23 Rocket - Visible Passes

Search period start: 04 April 2026 00:00
Search period end: 14 April 2026 00:00
Orbit: 841 x 881 km, 81.3° (Epoch: 29 March)

Date Brightness Start Highest point End Pass type
(mag) Time Alt. Az. Time Alt. Az. Time Alt. Az.
4 Apr 6.8 19:43:26 10° NW 19:47:56 24° W 19:52:23 10° SW visible
5 Apr 6.8 19:34:35 10° NNW 19:39:07 24° W 19:43:35 10° SW visible
6 Apr 6.9 19:25:43 10° NNW 19:30:16 25° W 19:34:47 10° SW visible
7 Apr 6.9 19:16:51 10° NNW 19:21:26 25° W 19:25:59 10° SW visible
